Location: Brompton
(51.4000°N, 0.5333°E)
Time: 07:48:50
(UTC+00:00)

ATLAS CENTAUR R/B - Pass Details

Date: 11 May 2021
Orbit: 472 x 671 km, 64.6° (Epoch: 08 June)

Event Time Altitude Azimuth Distance (km) Brightness Sun altitude
Exits shadow 23:38:15 22° 95° (E) 1,113 2.8 -20.4°
Drops below altitude 10° 23:40:26 10° 63° (ENE) 1,707 4.1 -20.4°
Sets 23:42:54 0° 50° (NE) 2,626 5.3 -20.4°
